Location: Coopersdale
(40.3556°N, 78.9372°W)
Time: 19:50:17
(UTC+00:00)

Transit 4A - Pass Details

Date: 28 January 2021
Orbit: 866 x 978 km, 66.8° (Epoch: 26 February)

Event Time Altitude Azimuth Distance (km) Brightness Sun altitude
Rises 08:18:18 0° 331° (NNW) 3,614 - -47.4°
Reaches altitude 10° 08:20:52 10° 332° (NNW) 2,650 - -46.9°
Maximum altitude 08:27:03 82° 60° (ENE) 926 - -45.8°
Drops below altitude 10° 08:33:00 10° 149° (SSE) 2,556 - -44.7°
Sets 08:35:27 0° 150° (SSE) 3,478 - -44.3°
